This is the latest recevied weather packets stored in our database for station/object GW1561. If no packets are shown the sender has not sent any weather packets the latest 10 day(s).
| Time | Temp. | Humidity | Pressure | Rain* | Wind** | Luminosity | Snow |
|---|---|---|---|---|---|---|---|
| 1777640613 | 5.56° C | 99% | 983.7 hPa | 0 mm | - | - | - |
| 1777636650 | 2.78° C | 99% | 984 hPa | 0 mm | - | - | - |
| 1777634140 | 1.67° C | 99% | 984 hPa | 0 mm | - | - | - |
| 1777631268 | 1.11° C | 99% | 984 hPa | 0 mm | - | - | - |
| 1777629089 | 1.11° C | 98% | 984 hPa | 0 mm | - | - | - |
| 1777628750 | 1.67° C | 98% | 984 hPa | 0 mm | - | - | - |
| 1777628362 | 1.67° C | 98% | 984 hPa | 0 mm | - | - | - |
| 1777620444 | 1.67° C | 98% | 984.4 hPa | 0 mm | - | - | - |
| 1777613961 | 2.78° C | 97% | 985.1 hPa | 0 mm | - | - | - |
| 1777607483 | 4.44° C | 97% | 985.4 hPa | 0 mm | - | - | - |
| 1777605694 | 5° C | 96% | 985.4 hPa | 0 mm | - | - | - |
| 1777605327 | 5° C | 96% | 985.4 hPa | 0 mm | - | - | - |
| 1777602431 | 5.56° C | 96% | 985.4 hPa | 0 mm | - | - | - |
| 1777601753 | 6.11° C | 95% | 985.4 hPa | 0 mm | - | - | - |
| 1777601372 | 6.11° C | 95% | 985.4 hPa | 0 mm | - | - | - |
| 1777600669 | 6.11° C | 95% | 985.1 hPa | 0 mm | - | - | - |
| 1777599562 | 6.67° C | 94% | 984.7 hPa | 0 mm | - | - | - |
| 1777597785 | 7.22° C | 93% | 984.4 hPa | 0 mm | - | - | - |
| 1777593794 | 10° C | 85% | 984 hPa | 0 mm | - | - | - |
| 1777593442 | 10° C | 85% | 984 hPa | 0 mm | - | - | - |
| 1777593078 | 10° C | 81% | 983.7 hPa | 0 mm | - | - | - |
| 1777592017 | 11.67° C | 67% | 983.7 hPa | 0 mm | - | - | - |
| 1777589513 | 12.22° C | 65% | 983.7 hPa | 0 mm | - | - | - |
| 1777588785 | 12.22° C | 62% | 983.7 hPa | 0 mm | - | - | - |
| 1777586613 | 12.78° C | 67% | 983.7 hPa | 0 mm | - | - | - |
* Rain since midnight (hover to see other rain measurements)
** Current wind speed in m/s (hover to see current wind gust speed)